Regional Weather Roundup
Issued by NWS State College, PA

Home | Current Version | Previous Version | Text Only | Print | Product List | Glossary On
Versions: 1 2 3 4 5 6 7 8 9 10 11 12 13 14 15 16 17 18 19 20 21 22 23 24 25 26 27 28 29 30 31 32 33 34 35 36 37 38 39 40 41 42 43 44 45 46 47 48 49 50
000
ASUS41 KCTP 231910
RWRCTP

REGIONAL WEATHER ROUNDUP
NATIONAL WEATHER SERVICE STATE COLLEGE PA
300 PM EDT TUE MAY 23 2017

Note: "fair" indicates few or no clouds below 12,000 feet with no
significant weather and/or obstructions to visibility.

* = STATION THAT DOES NOT REPORT PRECIPITATION /E.G. RAIN...SNOW...ETC/
    THUNDER OR FOG.

PAZ002>004-007>009-013>016-020>023-029>032-232000-
WESTERN PENNSYLVANIA

CITY           SKY/WX    TMP DP  RH WIND       PRES   REMARKS
ERIE           CLOUDY    67  47  48 N9        29.82F
MEADVILLE      MOSUNNY   72  47  40 E7        29.82F
FRANKLIN*      SUNNY     72  45  37 SE10G16   29.84F
NEW CASTLE     FAIR      73  46  38 VRB6      29.82
BEAVER COUNTY  SUNNY     72  45  37 SE7       29.81F
BUTLER*        PTSUNNY   70  46  43 E12       29.83F
PITTSBURGH INT CLOUDY    71  48  43 SE13      29.81F
PITTSBURGH     CLOUDY    70  46  42 SE9       29.81F
INDIANA*       NOT AVBL
LATROBE        MOSUNNY   68  46  45 SE7       29.84F
WASHINGTON CO* CLOUDY    70  52  52 SE8       29.83F
$$

PAZ004>006-010>012-017>019-024>028-033>037-041-042-045-046-049>053-232000-
CENTRAL PENNSYLVANIA

CITY           SKY/WX    TMP DP  RH WIND       PRES   REMARKS
BRADFORD         N/A    N/A N/A N/A MISG      29.86F
DUBOIS         MOSUNNY   68  40  35 SE13      29.86F
CLEARFIELD     MOSUNNY   69  39  33 SE7G17    29.87F
JOHNSTOWN      CLOUDY    62  44  51 SE10      29.88F
ALTOONA        CLOUDY    67  44  43 E6        29.89F
STATE COLLEGE  SUNNY     68  41  37 E3        29.88F
WILLIAMSPORT   CLOUDY    70  49  47 VRB5      29.88F
SELINSGROVE    CLOUDY    67  52  58 CALM      29.90F
FT INDIANTOWN  CLOUDY    64  48  56 CALM      29.90F
CAPITAL CITY   CLOUDY    67  46  47 CALM      29.90F
HARRISBURG     CLOUDY    66  52  60 S3        29.89F
YORK           CLOUDY    65  51  60 E5        29.90F
$$

PAZ038>040-043-044-047-048-054-055-060>062-067>071-232000-
EASTERN PENNSYLVANIA

CITY           SKY/WX    TMP DP  RH WIND       PRES   REMARKS
SCRANTON       CLOUDY    68  49  50 N3        29.89F
MOUNT POCONO   CLOUDY    60  46  59 E5        29.91F
ALLENTOWN      CLOUDY    68  48  48 E6        29.90F
QUAKERTOWN*    CLOUDY    64  52  63 CALM      29.91F
READING        CLOUDY    67  50  54 E5        29.88F
LANCASTER      CLOUDY    66  50  56 SE7       29.90F
COATESVILLE    CLOUDY    63  55  77 E6        29.92S
POTTSTOWN      CLOUDY    64  50  60 CALM      29.92F
BLUE BELL      CLOUDY    63  54  72 SE5       29.91F
DOYLESTOWN     CLOUDY    63  53  70 VRB3      29.90F
WILLOW GROVE   NOT AVBL
NORTH PHILA    CLOUDY    66  52  60 SE6       29.91F
PHILADELPHIA   CLOUDY    66  52  60 E7        29.89F
$$




USA.gov is the U.S. government's official web portal to all federal, state and local government web resources and services.